Year,Month,Day,Hour,Minute,Value (Times are PST for insolation in W/m^2)
2022,04,29,00,00,0.00
2022,04,29,00,01,0.00
2022,04,29,00,02,0.00
2022,04,29,00,03,0.00
2022,04,29,00,04,0.00
2022,04,29,00,05,0.00
2022,04,29,00,06,0.00
2022,04,29,00,07,0.00
2022,04,29,00,08,0.00
2022,04,29,00,09,0.00
2022,04,29,00,10,0.00
2022,04,29,00,11,0.00
2022,04,29,00,12,0.00
2022,04,29,00,13,0.00
2022,04,29,00,14,0.00
2022,04,29,00,15,0.00
2022,04,29,00,16,0.00
2022,04,29,00,17,0.00
2022,04,29,00,18,0.00
2022,04,29,00,19,0.00
2022,04,29,00,20,0.00
2022,04,29,00,21,0.00
2022,04,29,00,22,0.00
2022,04,29,00,23,0.00
2022,04,29,00,24,0.00
2022,04,29,00,25,0.00
2022,04,29,00,26,0.00
2022,04,29,00,27,0.00
2022,04,29,00,28,0.00
2022,04,29,00,29,0.00
2022,04,29,00,30,0.00
2022,04,29,00,31,0.00
2022,04,29,00,32,0.00
2022,04,29,00,33,0.00
2022,04,29,00,34,0.00
2022,04,29,00,35,0.00
2022,04,29,00,36,0.00
2022,04,29,00,37,0.00
2022,04,29,00,38,0.00
2022,04,29,00,39,0.00
2022,04,29,00,40,0.00
2022,04,29,00,41,0.00
2022,04,29,00,42,0.00
2022,04,29,00,43,0.00
2022,04,29,00,44,0.00
2022,04,29,00,45,0.00
2022,04,29,00,46,0.00
2022,04,29,00,47,0.00
2022,04,29,00,48,0.00
2022,04,29,00,49,0.00
2022,04,29,00,50,0.00
2022,04,29,00,51,0.00
2022,04,29,00,52,0.00
2022,04,29,00,53,0.00
2022,04,29,00,54,0.00
2022,04,29,00,55,0.00
2022,04,29,00,56,0.00
2022,04,29,00,57,0.00
2022,04,29,00,58,0.00
2022,04,29,00,59,0.00
2022,04,29,01,00,0.00
2022,04,29,01,01,0.00
2022,04,29,01,02,0.00
2022,04,29,01,03,0.00
2022,04,29,01,04,0.00
2022,04,29,01,05,0.00
2022,04,29,01,06,0.00
2022,04,29,01,07,0.00
2022,04,29,01,08,0.00
2022,04,29,01,09,0.00
2022,04,29,01,10,0.00
2022,04,29,01,11,0.00
2022,04,29,01,12,0.00
2022,04,29,01,13,0.00
2022,04,29,01,14,0.00
2022,04,29,01,15,0.00
2022,04,29,01,16,0.00
2022,04,29,01,17,0.00
2022,04,29,01,18,0.00
2022,04,29,01,19,0.00
2022,04,29,01,20,0.00
2022,04,29,01,21,0.00
2022,04,29,01,22,0.00
2022,04,29,01,23,0.00
2022,04,29,01,24,0.00
2022,04,29,01,25,0.00
2022,04,29,01,26,0.00
2022,04,29,01,27,0.00
2022,04,29,01,28,0.00
2022,04,29,01,29,0.00
2022,04,29,01,30,0.00
2022,04,29,01,31,0.00
2022,04,29,01,32,0.00
2022,04,29,01,33,0.00
2022,04,29,01,34,0.00
2022,04,29,01,35,0.00
2022,04,29,01,36,0.00
2022,04,29,01,37,0.00
2022,04,29,01,38,0.00
2022,04,29,01,39,0.00
2022,04,29,01,40,0.00
2022,04,29,01,41,0.00
2022,04,29,01,42,0.00
2022,04,29,01,43,0.00
2022,04,29,01,44,0.00
2022,04,29,01,45,0.00
2022,04,29,01,46,0.00
2022,04,29,01,47,0.00
2022,04,29,01,48,0.00
2022,04,29,01,49,0.00
2022,04,29,01,50,0.00
2022,04,29,01,51,0.00
2022,04,29,01,52,0.00
2022,04,29,01,53,0.00
2022,04,29,01,54,0.00
2022,04,29,01,55,0.00
2022,04,29,01,56,0.00
2022,04,29,01,57,0.00
2022,04,29,01,58,0.00
2022,04,29,01,59,0.00
2022,04,29,02,00,0.00
2022,04,29,02,01,0.00
2022,04,29,02,02,0.00
2022,04,29,02,03,0.00
2022,04,29,02,04,0.00
2022,04,29,02,05,0.00
2022,04,29,02,06,0.00
2022,04,29,02,07,0.00
2022,04,29,02,08,0.00
2022,04,29,02,09,0.00
2022,04,29,02,10,0.00
2022,04,29,02,11,0.00
2022,04,29,02,12,0.00
2022,04,29,02,13,0.00
2022,04,29,02,14,0.00
2022,04,29,02,15,0.00
2022,04,29,02,16,0.00
2022,04,29,02,17,0.00
2022,04,29,02,18,0.00
2022,04,29,02,19,0.00
2022,04,29,02,20,0.00
2022,04,29,02,21,0.00
2022,04,29,02,22,0.00
2022,04,29,02,23,0.00
2022,04,29,02,24,0.00
2022,04,29,02,25,0.00
2022,04,29,02,26,0.00
2022,04,29,02,27,0.00
2022,04,29,02,28,0.00
2022,04,29,02,29,0.00
2022,04,29,02,30,0.00
2022,04,29,02,31,0.00
2022,04,29,02,32,0.00
2022,04,29,02,33,0.00
2022,04,29,02,34,0.00
2022,04,29,02,35,0.00
2022,04,29,02,36,0.00
2022,04,29,02,37,0.00
2022,04,29,02,38,0.00
2022,04,29,02,39,0.00
2022,04,29,02,40,0.00
2022,04,29,02,41,0.00
2022,04,29,02,42,0.00
2022,04,29,02,43,0.00
2022,04,29,02,44,0.00
2022,04,29,02,45,0.00
2022,04,29,02,46,0.00
2022,04,29,02,47,0.00
2022,04,29,02,48,0.00
2022,04,29,02,49,0.00
2022,04,29,02,50,0.00
2022,04,29,02,51,0.00
2022,04,29,02,52,0.00
2022,04,29,02,53,0.00
2022,04,29,02,54,0.00
2022,04,29,02,55,0.00
2022,04,29,02,56,0.00
2022,04,29,02,57,0.00
2022,04,29,02,58,0.00
2022,04,29,02,59,0.00
2022,04,29,03,00,0.00
2022,04,29,03,01,0.00
2022,04,29,03,02,0.00
2022,04,29,03,03,0.00
2022,04,29,03,04,0.00
2022,04,29,03,05,0.00
2022,04,29,03,06,0.00
2022,04,29,03,07,0.00
2022,04,29,03,08,0.00
2022,04,29,03,09,0.00
2022,04,29,03,10,0.00
2022,04,29,03,11,0.00
2022,04,29,03,12,0.00
2022,04,29,03,13,0.00
2022,04,29,03,14,0.00
2022,04,29,03,15,0.00
2022,04,29,03,16,0.00
2022,04,29,03,17,0.00
2022,04,29,03,18,0.00
2022,04,29,03,19,0.00
2022,04,29,03,20,0.00
2022,04,29,03,21,0.00
2022,04,29,03,22,0.00
2022,04,29,03,23,0.00
2022,04,29,03,24,0.00
2022,04,29,03,25,0.00
2022,04,29,03,26,0.00
2022,04,29,03,27,0.00
2022,04,29,03,28,0.00
2022,04,29,03,29,0.00
2022,04,29,03,30,0.00
2022,04,29,03,31,0.00
2022,04,29,03,32,0.00
2022,04,29,03,33,0.00
2022,04,29,03,34,0.00
2022,04,29,03,35,0.00
2022,04,29,03,36,0.00
2022,04,29,03,37,0.00
2022,04,29,03,38,0.00
2022,04,29,03,39,0.00
2022,04,29,03,40,0.00
2022,04,29,03,41,0.00
2022,04,29,03,42,0.00
2022,04,29,03,43,0.00
2022,04,29,03,44,0.00
2022,04,29,03,45,0.00
2022,04,29,03,46,0.00
2022,04,29,03,47,0.00
2022,04,29,03,48,0.00
2022,04,29,03,49,0.00
2022,04,29,03,50,0.00
2022,04,29,03,51,0.00
2022,04,29,03,52,0.00
2022,04,29,03,53,0.00
2022,04,29,03,54,0.00
2022,04,29,03,55,0.00
2022,04,29,03,56,0.00
2022,04,29,03,57,0.00
2022,04,29,03,58,0.00
2022,04,29,03,59,0.00
2022,04,29,04,00,0.00
2022,04,29,04,01,0.00
2022,04,29,04,02,0.00
2022,04,29,04,03,0.00
2022,04,29,04,04,0.00
2022,04,29,04,05,0.00
2022,04,29,04,06,0.00
2022,04,29,04,07,0.00
2022,04,29,04,08,0.00
2022,04,29,04,09,0.00
2022,04,29,04,10,0.00
2022,04,29,04,11,0.00
2022,04,29,04,12,0.00
2022,04,29,04,13,0.00
2022,04,29,04,14,0.00
2022,04,29,04,15,0.00
2022,04,29,04,16,0.00
2022,04,29,04,17,0.00
2022,04,29,04,18,0.00
2022,04,29,04,19,0.00
2022,04,29,04,20,0.00
2022,04,29,04,21,0.00
2022,04,29,04,22,0.00
2022,04,29,04,23,0.00
2022,04,29,04,24,0.00
2022,04,29,04,25,0.00
2022,04,29,04,26,0.00
2022,04,29,04,27,0.00
2022,04,29,04,28,0.00
2022,04,29,04,29,0.00
2022,04,29,04,30,0.00
2022,04,29,04,31,0.00
2022,04,29,04,32,0.00
2022,04,29,04,33,0.00
2022,04,29,04,34,0.00
2022,04,29,04,35,0.00
2022,04,29,04,36,0.00
2022,04,29,04,37,0.00
2022,04,29,04,38,0.00
2022,04,29,04,39,0.00
2022,04,29,04,40,0.00
2022,04,29,04,41,0.00
2022,04,29,04,42,0.00
2022,04,29,04,43,0.00
2022,04,29,04,44,0.00
2022,04,29,04,45,0.00
2022,04,29,04,46,0.00
2022,04,29,04,47,0.00
2022,04,29,04,48,0.00
2022,04,29,04,49,0.00
2022,04,29,04,50,0.00
2022,04,29,04,51,0.00
2022,04,29,04,52,0.00
2022,04,29,04,53,0.00
2022,04,29,04,54,0.00
2022,04,29,04,55,0.00
2022,04,29,04,56,0.00
2022,04,29,04,57,0.00
2022,04,29,04,58,0.00
2022,04,29,04,59,0.00
2022,04,29,05,00,0.00
2022,04,29,05,01,0.00
2022,04,29,05,02,0.00
2022,04,29,05,03,0.00
2022,04,29,05,04,0.00
2022,04,29,05,05,0.00
2022,04,29,05,06,0.00
2022,04,29,05,07,0.00
2022,04,29,05,08,0.00
2022,04,29,05,09,0.00
2022,04,29,05,10,0.00
2022,04,29,05,11,0.00
2022,04,29,05,12,0.00
2022,04,29,05,13,0.00
2022,04,29,05,14,0.00
2022,04,29,05,15,0.00
2022,04,29,05,16,0.00
2022,04,29,05,17,0.00
2022,04,29,05,18,0.00
2022,04,29,05,19,0.00
2022,04,29,05,20,0.00
2022,04,29,05,21,0.00
2022,04,29,05,22,0.00
2022,04,29,05,23,0.00
2022,04,29,05,24,0.00
2022,04,29,05,25,0.00
2022,04,29,05,26,0.00
2022,04,29,05,27,0.00
2022,04,29,05,28,0.00
2022,04,29,05,29,0.00
2022,04,29,05,30,0.00
2022,04,29,05,31,0.00
2022,04,29,05,32,0.00
2022,04,29,05,33,0.00
2022,04,29,05,34,0.00
2022,04,29,05,35,0.00
2022,04,29,05,36,0.00
2022,04,29,05,37,0.00
2022,04,29,05,38,0.00
2022,04,29,05,39,0.00
2022,04,29,05,40,0.00
2022,04,29,05,41,0.00
2022,04,29,05,42,0.00
2022,04,29,05,43,0.00
2022,04,29,05,44,0.00
2022,04,29,05,45,0.00
2022,04,29,05,46,0.00
2022,04,29,05,47,0.00
2022,04,29,05,48,0.00
2022,04,29,05,49,0.00
2022,04,29,05,50,0.00
2022,04,29,05,51,0.00
2022,04,29,05,52,0.00
2022,04,29,05,53,0.00
2022,04,29,05,54,0.00
2022,04,29,05,55,0.00
2022,04,29,05,56,0.00
2022,04,29,05,57,0.00
2022,04,29,05,58,0.00
2022,04,29,05,59,0.00
2022,04,29,06,00,0.00
2022,04,29,06,01,0.00
2022,04,29,06,02,0.00
2022,04,29,06,03,0.00
2022,04,29,06,04,0.00
2022,04,29,06,05,0.00
2022,04,29,06,06,0.00
2022,04,29,06,07,0.00
2022,04,29,06,08,0.00
2022,04,29,06,09,0.00
2022,04,29,06,10,0.00
2022,04,29,06,11,0.00
2022,04,29,06,12,3.50
2022,04,29,06,13,5.00
2022,04,29,06,14,5.00
2022,04,29,06,15,5.00
2022,04,29,06,16,5.00
2022,04,29,06,17,5.00
2022,04,29,06,18,6.20
2022,04,29,06,19,7.00
2022,04,29,06,20,7.00
2022,04,29,06,21,7.00
2022,04,29,06,22,7.00
2022,04,29,06,23,7.00
2022,04,29,06,24,7.00
2022,04,29,06,25,8.10
2022,04,29,06,26,9.00
2022,04,29,06,27,9.00
2022,04,29,06,28,9.10
2022,04,29,06,29,11.00
2022,04,29,06,30,11.00
2022,04,29,06,31,11.00
2022,04,29,06,32,11.00
2022,04,29,06,33,11.00
2022,04,29,06,34,11.00
2022,04,29,06,35,11.00
2022,04,29,06,36,11.00
2022,04,29,06,37,11.00
2022,04,29,06,38,11.00
2022,04,29,06,39,11.00
2022,04,29,06,40,11.00
2022,04,29,06,41,11.00
2022,04,29,06,42,11.10
2022,04,29,06,43,12.00
2022,04,29,06,44,12.00
2022,04,29,06,45,12.00
2022,04,29,06,46,13.10
2022,04,29,06,47,14.00
2022,04,29,06,48,15.60
2022,04,29,06,49,16.10
2022,04,29,06,50,18.00
2022,04,29,06,51,18.30
2022,04,29,06,52,19.00
2022,04,29,06,53,20.10
2022,04,29,06,54,22.40
2022,04,29,06,55,23.00
2022,04,29,06,56,24.90
2022,04,29,06,57,25.20
2022,04,29,06,58,26.00
2022,04,29,06,59,26.00
2022,04,29,07,00,27.10
2022,04,29,07,01,29.40
2022,04,29,07,02,31.60
2022,04,29,07,03,33.10
2022,04,29,07,04,35.40
2022,04,29,07,05,37.60
2022,04,29,07,06,39.40
2022,04,29,07,07,40.00
2022,04,29,07,08,41.30
2022,04,29,07,09,42.00
2022,04,29,07,10,42.10
2022,04,29,07,11,44.00
2022,04,29,07,12,44.60
2022,04,29,07,13,46.40
2022,04,29,07,14,47.00
2022,04,29,07,15,48.30
2022,04,29,07,16,49.00
2022,04,29,07,17,50.90
2022,04,29,07,18,53.20
2022,04,29,07,19,54.60
2022,04,29,07,20,56.00
2022,04,29,07,21,57.10
2022,04,29,07,22,60.80
2022,04,29,07,23,62.80
2022,04,29,07,24,65.10
2022,04,29,07,25,67.40
2022,04,29,07,26,69.30
2022,04,29,07,27,70.90
2022,04,29,07,28,73.10
2022,04,29,07,29,75.40
2022,04,29,07,30,76.80
2022,04,29,07,31,79.00
2022,04,29,07,32,81.90
2022,04,29,07,33,87.50
2022,04,29,07,34,91.80
2022,04,29,07,35,93.00
2022,04,29,07,36,91.60
2022,04,29,07,37,91.00
2022,04,29,07,38,90.10
2022,04,29,07,39,89.60
2022,04,29,07,40,88.00
2022,04,29,07,41,87.10
2022,04,29,07,42,86.00
2022,04,29,07,43,86.00
2022,04,29,07,44,84.40
2022,04,29,07,45,87.90
2022,04,29,07,46,87.60
2022,04,29,07,47,85.30
2022,04,29,07,48,83.60
2022,04,29,07,49,81.90
2022,04,29,07,50,79.60
2022,04,29,07,51,77.40
2022,04,29,07,52,83.00
2022,04,29,07,53,86.90
2022,04,29,07,54,96.90
2022,04,29,07,55,111.00
2022,04,29,07,56,157.70
2022,04,29,07,57,128.10
2022,04,29,07,58,157.90
2022,04,29,07,59,244.10
2022,04,29,08,00,250.00
2022,04,29,08,01,253.00
2022,04,29,08,02,264.90
2022,04,29,08,03,269.90
2022,04,29,08,04,269.00
2022,04,29,08,05,274.70
2022,04,29,08,06,273.80
2022,04,29,08,07,297.40
2022,04,29,08,08,211.20
2022,04,29,08,09,165.00
2022,04,29,08,10,155.00
2022,04,29,08,11,151.00
2022,04,29,08,12,256.90
2022,04,29,08,13,240.30
2022,04,29,08,14,215.50
2022,04,29,08,15,123.70
2022,04,29,08,16,132.20
2022,04,29,08,17,136.20
2022,04,29,08,18,138.40
2022,04,29,08,19,137.40
2022,04,29,08,20,225.30
2022,04,29,08,21,268.90
2022,04,29,08,22,199.00
2022,04,29,08,23,243.40
2022,04,29,08,24,270.10
2022,04,29,08,25,243.00
2022,04,29,08,26,366.00
2022,04,29,08,27,394.00
2022,04,29,08,28,394.00
2022,04,29,08,29,326.80
2022,04,29,08,30,222.30
2022,04,29,08,31,217.10
2022,04,29,08,32,167.50
2022,04,29,08,33,160.40
2022,04,29,08,34,190.70
2022,04,29,08,35,175.60
2022,04,29,08,36,160.70
2022,04,29,08,37,150.10
2022,04,29,08,38,156.70
2022,04,29,08,39,165.50
2022,04,29,08,40,178.50
2022,04,29,08,41,198.30
2022,04,29,08,42,207.30
2022,04,29,08,43,243.70
2022,04,29,08,44,280.30
2022,04,29,08,45,327.00
2022,04,29,08,46,230.80
2022,04,29,08,47,183.90
2022,04,29,08,48,183.30
2022,04,29,08,49,195.90
2022,04,29,08,50,219.80
2022,04,29,08,51,236.00
2022,04,29,08,52,218.20
2022,04,29,08,53,204.00
2022,04,29,08,54,242.30
2022,04,29,08,55,250.00
2022,04,29,08,56,250.00
2022,04,29,08,57,226.30
2022,04,29,08,58,176.80
2022,04,29,08,59,174.00
2022,04,29,09,00,174.00
2022,04,29,09,01,342.70
2022,04,29,09,02,381.00
2022,04,29,09,03,381.00
2022,04,29,09,04,381.00
2022,04,29,09,05,381.00
2022,04,29,09,06,381.00
2022,04,29,09,07,381.00
2022,04,29,09,08,208.30
2022,04,29,09,09,161.50
2022,04,29,09,10,176.00
2022,04,29,09,11,176.00
2022,04,29,09,12,181.90
2022,04,29,09,13,196.70
2022,04,29,09,14,214.70
2022,04,29,09,15,234.00
2022,04,29,09,16,237.00
2022,04,29,09,17,241.30
2022,04,29,09,18,250.00
2022,04,29,09,19,222.40
2022,04,29,09,20,220.80
2022,04,29,09,21,236.90
2022,04,29,09,22,248.30
2022,04,29,09,23,302.50
2022,04,29,09,24,252.30
2022,04,29,09,25,261.00
2022,04,29,09,26,267.00
2022,04,29,09,27,267.00
2022,04,29,09,28,267.00
2022,04,29,09,29,267.00
2022,04,29,09,30,248.80
2022,04,29,09,31,319.30
2022,04,29,09,32,313.60
2022,04,29,09,33,332.90
2022,04,29,09,34,384.60
2022,04,29,09,35,401.00
2022,04,29,09,36,401.00
2022,04,29,09,37,318.20
2022,04,29,09,38,315.00
2022,04,29,09,39,296.00
2022,04,29,09,40,289.60
2022,04,29,09,41,322.50
2022,04,29,09,42,325.60
2022,04,29,09,43,297.20
2022,04,29,09,44,250.50
2022,04,29,09,45,229.60
2022,04,29,09,46,200.00
2022,04,29,09,47,247.30
2022,04,29,09,48,322.10
2022,04,29,09,49,279.60
2022,04,29,09,50,233.80
2022,04,29,09,51,216.80
2022,04,29,09,52,227.60
2022,04,29,09,53,248.50
2022,04,29,09,54,291.00
2022,04,29,09,55,293.70
2022,04,29,09,56,296.50
2022,04,29,09,57,296.20
2022,04,29,09,58,295.90
2022,04,29,09,59,272.60
2022,04,29,10,00,221.70
2022,04,29,10,01,187.70
2022,04,29,10,02,188.10
2022,04,29,10,03,200.70
2022,04,29,10,04,221.90
2022,04,29,10,05,231.10
2022,04,29,10,06,264.00
2022,04,29,10,07,281.00
2022,04,29,10,08,290.10
2022,04,29,10,09,307.00
2022,04,29,10,10,295.60
2022,04,29,10,11,253.60
2022,04,29,10,12,214.70
2022,04,29,10,13,206.30
2022,04,29,10,14,204.00
2022,04,29,10,15,210.20
2022,04,29,10,16,237.60
2022,04,29,10,17,239.00
2022,04,29,10,18,221.00
2022,04,29,10,19,203.50
2022,04,29,10,20,218.00
2022,04,29,10,21,249.70
2022,04,29,10,22,265.40
2022,04,29,10,23,242.80
2022,04,29,10,24,244.00
2022,04,29,10,25,244.00
2022,04,29,10,26,244.00
2022,04,29,10,27,251.60
2022,04,29,10,28,268.00
2022,04,29,10,29,240.90
2022,04,29,10,30,225.70
2022,04,29,10,31,247.00
2022,04,29,10,32,260.00
2022,04,29,10,33,485.90
2022,04,29,10,34,466.40
2022,04,29,10,35,287.30
2022,04,29,10,36,249.00
2022,04,29,10,37,230.10
2022,04,29,10,38,222.30
2022,04,29,10,39,215.10
2022,04,29,10,40,220.60
2022,04,29,10,41,253.70
2022,04,29,10,42,283.70
2022,04,29,10,43,297.90
2022,04,29,10,44,295.10
2022,04,29,10,45,272.70
2022,04,29,10,46,253.60
2022,04,29,10,47,251.00
2022,04,29,10,48,262.10
2022,04,29,10,49,302.60
2022,04,29,10,50,288.10
2022,04,29,10,51,292.00
2022,04,29,10,52,290.70
2022,04,29,10,53,263.70
2022,04,29,10,54,247.70
2022,04,29,10,55,237.90
2022,04,29,10,56,234.60
2022,04,29,10,57,240.40
2022,04,29,10,58,252.10
2022,04,29,10,59,271.00
2022,04,29,11,00,302.40
2022,04,29,11,01,336.80
2022,04,29,11,02,350.60
2022,04,29,11,03,386.40
2022,04,29,11,04,332.10
2022,04,29,11,05,307.90
2022,04,29,11,06,283.30
2022,04,29,11,07,277.30
2022,04,29,11,08,297.30
2022,04,29,11,09,369.50
2022,04,29,11,10,332.00
2022,04,29,11,11,332.00
2022,04,29,11,12,332.00
2022,04,29,11,13,375.60
2022,04,29,11,14,377.70
2022,04,29,11,15,371.70
2022,04,29,11,16,378.00
2022,04,29,11,17,378.00
2022,04,29,11,18,422.40
2022,04,29,11,19,478.00
2022,04,29,11,20,318.30
2022,04,29,11,21,238.80
2022,04,29,11,22,247.60
2022,04,29,11,23,281.50
2022,04,29,11,24,302.60
2022,04,29,11,25,316.00
2022,04,29,11,26,316.00
2022,04,29,11,27,307.60
2022,04,29,11,28,299.90
2022,04,29,11,29,283.90
2022,04,29,11,30,232.30
2022,04,29,11,31,207.30
2022,04,29,11,32,206.20
2022,04,29,11,33,214.30
2022,04,29,11,34,226.40
2022,04,29,11,35,250.40
2022,04,29,11,36,261.40
2022,04,29,11,37,253.90
2022,04,29,11,38,230.00
2022,04,29,11,39,221.80
2022,04,29,11,40,229.80
2022,04,29,11,41,230.60
2022,04,29,11,42,240.60
2022,04,29,11,43,275.20
2022,04,29,11,44,307.70
2022,04,29,11,45,313.80
2022,04,29,11,46,307.90
2022,04,29,11,47,312.90
2022,04,29,11,48,341.30
2022,04,29,11,49,340.60
2022,04,29,11,50,314.40
2022,04,29,11,51,301.10
2022,04,29,11,52,293.40
2022,04,29,11,53,281.10
2022,04,29,11,54,276.00
2022,04,29,11,55,285.90
2022,04,29,11,56,307.10
2022,04,29,11,57,322.40
2022,04,29,11,58,318.00
2022,04,29,11,59,306.60
2022,04,29,12,00,295.20
2022,04,29,12,01,281.30
2022,04,29,12,02,271.30
2022,04,29,12,03,270.60
2022,04,29,12,04,273.60
2022,04,29,12,05,268.60
2022,04,29,12,06,253.60
2022,04,29,12,07,235.00
2022,04,29,12,08,214.40
2022,04,29,12,09,193.30
2022,04,29,12,10,179.90
2022,04,29,12,11,173.90
2022,04,29,12,12,167.90
2022,04,29,12,13,164.20
2022,04,29,12,14,175.00
2022,04,29,12,15,199.40
2022,04,29,12,16,233.50
2022,04,29,12,17,272.30
2022,04,29,12,18,335.80
2022,04,29,12,19,356.50
2022,04,29,12,20,444.10
2022,04,29,12,21,457.00
2022,04,29,12,22,435.40
2022,04,29,12,23,426.10
2022,04,29,12,24,422.40
2022,04,29,12,25,441.60
2022,04,29,12,26,419.70
2022,04,29,12,27,405.90
2022,04,29,12,28,391.10
2022,04,29,12,29,366.50
2022,04,29,12,30,339.00
2022,04,29,12,31,343.40
2022,04,29,12,32,368.60
2022,04,29,12,33,389.60
2022,04,29,12,34,412.70
2022,04,29,12,35,452.40
2022,04,29,12,36,466.10
2022,04,29,12,37,441.30
2022,04,29,12,38,423.50
2022,04,29,12,39,488.70
2022,04,29,12,40,429.00
2022,04,29,12,41,417.60
2022,04,29,12,42,389.90
2022,04,29,12,43,387.00
2022,04,29,12,44,387.00
2022,04,29,12,45,355.20
2022,04,29,12,46,333.10
2022,04,29,12,47,326.40
2022,04,29,12,48,306.10
2022,04,29,12,49,268.60
2022,04,29,12,50,234.10
2022,04,29,12,51,219.50
2022,04,29,12,52,216.40
2022,04,29,12,53,226.70
2022,04,29,12,54,234.40
2022,04,29,12,55,234.00
2022,04,29,12,56,226.90
2022,04,29,12,57,219.10
2022,04,29,12,58,218.80
2022,04,29,12,59,233.00
2022,04,29,13,00,252.90
2022,04,29,13,01,272.30
2022,04,29,13,02,292.00
2022,04,29,13,03,307.80
2022,04,29,13,04,321.70
2022,04,29,13,05,330.50
2022,04,29,13,06,342.60
2022,04,29,13,07,374.90
2022,04,29,13,08,420.10
2022,04,29,13,09,436.80
2022,04,29,13,10,434.00
2022,04,29,13,11,434.00
2022,04,29,13,12,434.00
2022,04,29,13,13,434.00
2022,04,29,13,14,434.00
2022,04,29,13,15,434.00
2022,04,29,13,16,434.00
2022,04,29,13,17,407.20
2022,04,29,13,18,374.90
2022,04,29,13,19,378.00
2022,04,29,13,20,380.00
2022,04,29,13,21,380.00
2022,04,29,13,22,376.70
2022,04,29,13,23,355.80
2022,04,29,13,24,337.90
2022,04,29,13,25,341.80
2022,04,29,13,26,336.70
2022,04,29,13,27,330.40
2022,04,29,13,28,356.60
2022,04,29,13,29,421.70
2022,04,29,13,30,452.90
2022,04,29,13,31,455.00
2022,04,29,13,32,455.00
2022,04,29,13,33,357.00
2022,04,29,13,34,352.00
2022,04,29,13,35,406.30
2022,04,29,13,36,408.00
2022,04,29,13,37,384.90
2022,04,29,13,38,320.70
2022,04,29,13,39,297.30
2022,04,29,13,40,277.30
2022,04,29,13,41,267.90
2022,04,29,13,42,264.10
2022,04,29,13,43,260.40
2022,04,29,13,44,263.50
2022,04,29,13,45,276.30
2022,04,29,13,46,288.00
2022,04,29,13,47,288.00
2022,04,29,13,48,314.10
2022,04,29,13,49,368.70
2022,04,29,13,50,425.00
2022,04,29,13,51,483.40
2022,04,29,13,52,622.00
2022,04,29,13,53,587.00
2022,04,29,13,54,559.00
2022,04,29,13,55,370.00
2022,04,29,13,56,331.70
2022,04,29,13,57,379.80
2022,04,29,13,58,415.30
2022,04,29,13,59,376.70
2022,04,29,14,00,392.40
2022,04,29,14,01,410.90
2022,04,29,14,02,397.90
2022,04,29,14,03,407.90
2022,04,29,14,04,386.50
2022,04,29,14,05,370.30
2022,04,29,14,06,387.70
2022,04,29,14,07,450.70
2022,04,29,14,08,478.00
2022,04,29,14,09,478.00
2022,04,29,14,10,455.90
2022,04,29,14,11,455.00
2022,04,29,14,12,509.70
2022,04,29,14,13,613.10
2022,04,29,14,14,601.10
2022,04,29,14,15,598.00
2022,04,29,14,16,439.90
2022,04,29,14,17,453.10
2022,04,29,14,18,424.70
2022,04,29,14,19,485.60
2022,04,29,14,20,443.00
2022,04,29,14,21,405.80
2022,04,29,14,22,420.00
2022,04,29,14,23,420.00
2022,04,29,14,24,376.10
2022,04,29,14,25,351.40
2022,04,29,14,26,337.30
2022,04,29,14,27,337.10
2022,04,29,14,28,352.30
2022,04,29,14,29,360.00
2022,04,29,14,30,376.30
2022,04,29,14,31,377.60
2022,04,29,14,32,363.40
2022,04,29,14,33,359.10
2022,04,29,14,34,372.90
2022,04,29,14,35,361.90
2022,04,29,14,36,353.50
2022,04,29,14,37,339.00
2022,04,29,14,38,311.40
2022,04,29,14,39,289.40
2022,04,29,14,40,274.30
2022,04,29,14,41,266.10
2022,04,29,14,42,266.20
2022,04,29,14,43,265.60
2022,04,29,14,44,258.50
2022,04,29,14,45,246.30
2022,04,29,14,46,238.60
2022,04,29,14,47,236.70
2022,04,29,14,48,232.90
2022,04,29,14,49,221.30
2022,04,29,14,50,206.10
2022,04,29,14,51,193.50
2022,04,29,14,52,183.10
2022,04,29,14,53,174.70
2022,04,29,14,54,166.70
2022,04,29,14,55,158.90
2022,04,29,14,56,152.60
2022,04,29,14,57,152.40
2022,04,29,14,58,155.40
2022,04,29,14,59,165.50
2022,04,29,15,00,178.30
2022,04,29,15,01,189.50
2022,04,29,15,02,196.10
2022,04,29,15,03,194.40
2022,04,29,15,04,185.10
2022,04,29,15,05,175.70
2022,04,29,15,06,162.90
2022,04,29,15,07,148.80
2022,04,29,15,08,135.30
2022,04,29,15,09,125.80
2022,04,29,15,10,125.40
2022,04,29,15,11,136.90
2022,04,29,15,12,158.10
2022,04,29,15,13,185.80
2022,04,29,15,14,210.10
2022,04,29,15,15,223.60
2022,04,29,15,16,228.10
2022,04,29,15,17,239.80
2022,04,29,15,18,253.70
2022,04,29,15,19,257.80
2022,04,29,15,20,239.30
2022,04,29,15,21,202.50
2022,04,29,15,22,162.30
2022,04,29,15,23,128.40
2022,04,29,15,24,106.20
2022,04,29,15,25,96.50
2022,04,29,15,26,96.60
2022,04,29,15,27,97.00
2022,04,29,15,28,97.60
2022,04,29,15,29,101.70
2022,04,29,15,30,108.40
2022,04,29,15,31,116.90
2022,04,29,15,32,126.70
2022,04,29,15,33,141.40
2022,04,29,15,34,159.80
2022,04,29,15,35,173.10
2022,04,29,15,36,178.00
2022,04,29,15,37,178.40
2022,04,29,15,38,186.80
2022,04,29,15,39,207.00
2022,04,29,15,40,236.00
2022,04,29,15,41,270.90
2022,04,29,15,42,300.70
2022,04,29,15,43,308.30
2022,04,29,15,44,313.90
2022,04,29,15,45,323.90
2022,04,29,15,46,323.50
2022,04,29,15,47,304.90
2022,04,29,15,48,283.50
2022,04,29,15,49,270.50
2022,04,29,15,50,260.70
2022,04,29,15,51,243.70
2022,04,29,15,52,219.20
2022,04,29,15,53,197.00
2022,04,29,15,54,181.40
2022,04,29,15,55,170.60
2022,04,29,15,56,157.60
2022,04,29,15,57,135.00
2022,04,29,15,58,115.70
2022,04,29,15,59,105.00
2022,04,29,16,00,98.70
2022,04,29,16,01,95.40
2022,04,29,16,02,93.00
2022,04,29,16,03,90.40
2022,04,29,16,04,85.70
2022,04,29,16,05,78.70
2022,04,29,16,06,73.80
2022,04,29,16,07,72.00
2022,04,29,16,08,75.30
2022,04,29,16,09,76.90
2022,04,29,16,10,77.40
2022,04,29,16,11,80.30
2022,04,29,16,12,84.40
2022,04,29,16,13,88.80
2022,04,29,16,14,97.30
2022,04,29,16,15,103.30
2022,04,29,16,16,105.10
2022,04,29,16,17,107.00
2022,04,29,16,18,108.30
2022,04,29,16,19,112.40
2022,04,29,16,20,115.10
2022,04,29,16,21,113.90
2022,04,29,16,22,106.50
2022,04,29,16,23,102.00
2022,04,29,16,24,99.60
2022,04,29,16,25,97.70
2022,04,29,16,26,95.20
2022,04,29,16,27,91.90
2022,04,29,16,28,91.00
2022,04,29,16,29,91.00
2022,04,29,16,30,93.00
2022,04,29,16,31,95.90
2022,04,29,16,32,103.00
2022,04,29,16,33,113.90
2022,04,29,16,34,124.40
2022,04,29,16,35,132.90
2022,04,29,16,36,138.30
2022,04,29,16,37,136.70
2022,04,29,16,38,129.90
2022,04,29,16,39,118.00
2022,04,29,16,40,108.30
2022,04,29,16,41,104.40
2022,04,29,16,42,101.20
2022,04,29,16,43,97.60
2022,04,29,16,44,97.40
2022,04,29,16,45,103.70
2022,04,29,16,46,113.70
2022,04,29,16,47,121.30
2022,04,29,16,48,121.90
2022,04,29,16,49,117.70
2022,04,29,16,50,114.40
2022,04,29,16,51,114.10
2022,04,29,16,52,118.90
2022,04,29,16,53,123.00
2022,04,29,16,54,121.80
2022,04,29,16,55,117.80
2022,04,29,16,56,114.70
2022,04,29,16,57,111.60
2022,04,29,16,58,100.30
2022,04,29,16,59,92.40
2022,04,29,17,00,90.30
2022,04,29,17,01,91.90
2022,04,29,17,02,94.10
2022,04,29,17,03,95.00
2022,04,29,17,04,91.70
2022,04,29,17,05,85.90
2022,04,29,17,06,77.70
2022,04,29,17,07,70.30
2022,04,29,17,08,63.90
2022,04,29,17,09,56.40
2022,04,29,17,10,51.90
2022,04,29,17,11,47.70
2022,04,29,17,12,47.00
2022,04,29,17,13,47.00